Lone Rock, WI

4:38 PM CDT on May 22, 2017 (GMT -0500)
Tri-County Regional

Weather History for KLNR - February, 2013

Change the Weather History Date:

Saturday, February 9, 2013

  Actual Average Record
Temperature  
Mean Temperature 16 °F -  
Max Temperature 30 °F 30 °F 50 °F (1999)
Min Temperature 1 °F 14 °F -11 °F (2003)
Degree Days  
Heating Degree Days 50    
Moisture  
Dew Point 15 °F    
Average Humidity 83    
Maximum Humidity 93    
Minimum Humidity 74    
Precipitation  
Precipitation 0.00 in - - ()
Sea Level Pressure  
Sea Level Pressure 30.27 in    
Wind  
Wind Speed 6 mph (SE)    
Max Wind Speed 14 mph    
Max Gust Speed 16 mph    
Visibility 4 miles    
Events Fog , Snow    
Averages and records for this station are not official NWS values.
T = Trace of Precipitation, MM = Missing Value Source: NWS Daily Summary

Daily Weather History Graph

Daily Weather History Graph

Search for Another Location

Airport or City:

Trip Planner

Search our weather history database for the weather conditions in past years. The results will help you decide how hot, cold, wet, or windy it might be!

Date:

Astronomy

Feb. 09, 2013 Rise Set
Actual Time 7:06 AM CST 5:24 PM CST
Civil Twilight 6:36 AM CST 5:53 PM CST
Nautical Twilight 6:03 AM CST 6:27 PM CST
Astronomical Twilight 5:30 AM CST 7:00 PM CST
Moon 6:17 AM CST (2/9) 5:07 PM CST (2/9)
Length of Visible Light 11h 16m
Length of Day
10h 17m
Waning Crescent, 0% of the Moon is Illuminated
Feb 9
Waning Crescent
Feb 10
New
Feb 17
First Quarter
Feb 25
Full
Mar 4
Last Quarter

Hourly Weather History & Observations

Time (CST) Temp. Windchill Dew Point Humidity Pressure Visibility Wind Dir Wind Speed Gust Speed Precip Events Conditions
12:54 AM 6.8 °F -0.1 °F 1.4 °F 79% 30.37 in 2.0 mi East 3.5 mph - N/A   Haze
12:56 AM 6.1 °F -0.9 °F 1.9 °F 83% 30.40 in 2.0 mi East 3.5 mph - N/A   Clear
1:12 AM 6.8 °F -3.5 °F 3.2 °F 85% 30.36 in 1.0 mi East 5.8 mph - N/A   Clear
1:19 AM 3.2 °F -9.1 °F 1.4 °F 92% 30.36 in 0.5 mi East 6.9 mph - N/A Fog Light Freezing Fog
1:40 AM 3.2 °F - -0.4 °F 85% 30.36 in 1.2 mi Calm Calm - N/A   Clear
1:53 AM 1.4 °F -6.2 °F -2.2 °F 85% 30.36 in 3.0 mi ESE 3.5 mph - N/A   Clear
1:56 AM 1.0 °F -8.7 °F -2.9 °F 83% 30.39 in 3.0 mi East 4.6 mph - N/A   Clear
2:42 AM 6.8 °F -4.8 °F 1.4 °F 79% 30.36 in 4.0 mi ESE 6.9 mph - N/A   Scattered Clouds
2:51 AM 10.4 °F 0.8 °F 6.8 °F 85% 30.36 in 4.0 mi East 5.8 mph - N/A   Mostly Cloudy
2:56 AM 10.0 °F 0.4 °F 7.0 °F 87% 30.39 in 4.0 mi East 5.8 mph - N/A   Mostly Cloudy
3:56 AM 15.1 °F 7.7 °F 10.9 °F 84% 30.38 in 4.0 mi SE 4.6 mph - N/A   Overcast
4:56 AM 16.0 °F 10.4 °F 12.9 °F 88% 30.37 in 4.0 mi ESE 3.5 mph - N/A   Overcast
5:56 AM 16.0 °F 7.4 °F 12.9 °F 88% 30.36 in 4.0 mi East 5.8 mph - N/A   Overcast
6:56 AM 17.1 °F 6.6 °F 14.0 °F 88% 30.35 in 4.0 mi East 8.1 mph - N/A   Overcast
7:56 AM 19.9 °F 12.1 °F 17.1 °F 89% 30.35 in 2.5 mi SE 5.8 mph - N/A   Overcast
8:22 AM 19.4 °F 11.5 °F 17.6 °F 93% 30.30 in 1.5 mi SE 5.8 mph - N/A   Overcast
8:30 AM 19.4 °F 10.4 °F 17.6 °F 93% 30.29 in 1.5 mi SE 6.9 mph - N/A   Overcast
8:44 AM 21.2 °F 12.6 °F 17.6 °F 86% 30.28 in 2.0 mi SE 6.9 mph - N/A   Overcast
8:56 AM 21.0 °F 13.4 °F 18.0 °F 88% 30.31 in 2.5 mi SE 5.8 mph 16.1 mph N/A   Overcast
9:12 AM 21.2 °F 10.9 °F 19.4 °F 93% 30.26 in 3.0 mi SSE 9.2 mph - N/A   Overcast
9:27 AM 21.2 °F 10.9 °F 19.4 °F 93% 30.26 in 2.5 mi South 9.2 mph - N/A   Overcast
9:56 AM 24.1 °F 14.4 °F 19.9 °F 84% 30.29 in 1.5 mi SSE 9.2 mph - 0.00 in Snow Light Snow
10:07 AM 24.8 °F 16.1 °F 21.2 °F 86% 30.26 in 3.0 mi South 8.1 mph - N/A   Overcast
10:56 AM 26.1 °F 16.8 °F 21.0 °F 81% 30.29 in 4.0 mi South 9.2 mph - N/A   Haze
11:56 AM 27.0 °F 16.1 °F 21.0 °F 78% 30.25 in 7.0 mi South 12.7 mph - N/A   Overcast
12:56 PM 28.0 °F 18.1 °F 21.9 °F 78% 30.23 in 8.0 mi South 11.5 mph - N/A   Overcast
1:20 PM 28.4 °F 17.5 °F 21.2 °F 74% 30.20 in 8.0 mi South 13.8 mph - N/A   Overcast
1:56 PM 28.9 °F 19.2 °F 21.9 °F 75% 30.21 in 8.0 mi South 11.5 mph 16.1 mph N/A   Overcast
2:56 PM 30.0 °F 22.4 °F 23.0 °F 75% 30.18 in 8.0 mi South 8.1 mph - N/A   Overcast
3:56 PM 30.0 °F 21.1 °F 23.0 °F 75% 30.15 in 8.0 mi South 10.4 mph - N/A   Overcast
4:56 PM 28.9 °F 21.9 °F 23.0 °F 78% 30.13 in 7.0 mi SSE 6.9 mph - N/A   Overcast
5:56 PM 28.9 °F 21.9 °F 23.0 °F 78% 30.13 in 8.0 mi SE 6.9 mph - N/A   Overcast
6:56 PM 28.9 °F 21.9 °F 23.0 °F 78% 30.11 in 7.0 mi SE 6.9 mph - N/A   Overcast
7:56 PM 28.9 °F 21.9 °F 23.0 °F 78% 30.12 in 7.0 mi SSE 6.9 mph - N/A   Overcast
8:56 PM 28.9 °F 21.9 °F 23.0 °F 78% 30.11 in 7.0 mi SE 6.9 mph - N/A   Overcast
9:56 PM 30.0 °F 22.4 °F 24.1 °F 79% 30.09 in 7.0 mi SE 8.1 mph - N/A   Overcast
10:56 PM 28.0 °F 21.7 °F 24.1 °F 85% 30.06 in 6.0 mi East 5.8 mph - N/A   Overcast
11:56 PM 30.0 °F 21.7 °F 25.0 °F 82% 30.04 in 6.0 mi East 9.2 mph - N/A   Haze